Location: Pradons
(44.4746°N, 4.3578°E)
Time: 20:23:55
(UTC+00:00)

Cosmos 1703 - Pass Details

Date: 12 August 2020
Orbit: 523 x 541 km, 82.5° (Epoch: 01 October)

Event Time Altitude Azimuth Distance (km) Brightness Sun altitude
Rises 01:40:39 0° 9° (N) 2,710 8.0 -25.3°
Reaches altitude 10° 01:43:44 10° 35° (NE) 1,810 7.0 -25.0°
Maximum altitude 01:45:53 14° 68° (ENE) 1,557 6.2 -24.8°
Drops below altitude 10° 01:48:02 10° 101° (ESE) 1,798 6.2 -24.6°
Enters shadow 01:50:12 - 122° (ESE) 2,388 6.6 -24.4°
